Powrót do katalogu

STARLINK-5450

AktywnyŁącznośćVLEO
NORAD 54778·PAYLOAD·🇺🇸 United States

Wystrzelony Dec 17, 2022 z Cape Canaveral Space Force Station

Loading…

Następne Przeloty (najbliższe 24 godziny)

TLE

ŚwieżeSource: CelesTrak SupGP

Epoka: Sep 14, 2026, 21:42 UTC

1 54778C 22175W   26257.90465278  .00042305  00000+0  12501-2 0  2572
2 54778  53.1565 245.9947 0001369  95.4461 169.7180 15.34364089    12

Śledź STARLINK-5450 w czasie rzeczywistym z AllMySat

Download on the App Store